#timestamp,LO_Frequency,Hit,StdDev 
1669006815.6,286046999.9,N
1669006835.5,286047000.6,N
1669006855.3,286047001.2,N
1669006875.1,286047001.0,N
1669006895.9,286047001.2,N
1669006915.7,286047000.3,N
1669006935.6,286047000.5,N
1669006955.4,286047002.1,N
1669006975.2,286047002.8,N
1669006995.1,286047000.2,N
1669006996.0,286047000.2,N
1669007015.8,286047001.0,N
1669007035.6,286047000.5,N
1669007055.5,286047000.0,N
1669007075.3,286047002.8,N
1669007095.2,286047002.6,N
1669007115.9,286047000.1,N
1669007135.7,286047000.0,N
1669007155.6,286047000.4,N
1669007175.4,286047000.9,N
1669007195.3,286046999.8,N
1669007215.1,286047000.3,N
1669007216.0,286047000.3,N
1669007235.8,286046999.9,N
1669007255.7,286047000.7,N
1669007275.5,286047002.7,N
1669007295.3,286047000.1,N
1669007315.2,286046999.7,N
1669007335.0,286047000.6,N
1669007335.9,286047000.6,N
1669007355.8,286046999.9,N
1669007375.6,286047000.8,N
1669007395.4,286046998.4,N
1669007415.3,286046999.6,N
1669007435.1,286046999.4,N
1669007455.8,286046999.2,N
1669007475.7,286046999.5,N
1669007495.5,286046996.9,N
1669007515.4,286047002.2,N
1669007535.2,286047003.7,Y
1669007555.0,286047004.3,P
1669007555.9,286047004.3,N
1669007575.8,286047004.2,N
1669007595.6,286047002.0,N
1669007615.4,286047001.2,N
1669007635.3,286046998.0,N
1669007655.1,286046992.9,Y
1669007675.9,286046989.4,P
1669007695.7,286046988.3,N
1669007715.5,286046985.3,N
1669007735.4,286046982.1,N
1669007755.2,286046979.7,N
1669007775.1,286046976.5,Y
1669007776.0,286046976.5,P
1669007795.8,286046986.2,N
1669007815.6,286046980.6,P
1669007835.5,286046980.5,Y
1669007855.3,286046997.5,P
1669007875.1,286046992.1,N
1669007895.9,286046991.6,N
1669007915.7,286046988.8,N
1669007935.6,286046987.1,N
1669007955.4,286046986.5,N
1669007975.2,286046983.3,Y
1669007995.1,286046992.6,P
1669007996.0,286046992.6,P
1669008015.8,286046990.1,P
1669008035.7,286046991.6,Y
1669008055.5,286046995.1,P
1669008075.3,286046993.6,P
1669008095.2,286046992.4,P
1669008115.9,286046993.1,Y
1669008135.7,286046999.1,P
1669008155.6,286046996.9,N
1669008175.4,286046995.0,N
1669008195.3,286046995.5,N
1669008215.1,286046993.3,Y
1669008216.0,286046993.3,P
1669008235.8,286046996.7,N
1669008255.7,286046995.1,P
1669008275.5,286046993.6,Y
1669008295.3,286046995.0,P
1669008315.2,286046996.1,P
1669008335.0,286046992.1,P
1669008335.9,286046992.1,Y
1669008355.8,286046997.8,P
1669008375.6,286047011.9,P
1669008395.4,286046996.4,N
1669008415.3,286046993.6,N
1669008435.1,286046994.2,N
1669008455.8,286046990.6,N
1669008475.7,286046991.5,N
1669008495.5,286046988.7,N
1669008515.4,286046987.0,N
1669008535.2,286046987.7,N
1669008555.0,286046985.3,N
1669008555.9,286046985.3,N
1669008575.8,286046984.2,N
1669008595.6,286046982.8,N
1669008615.4,286046983.2,N
1669008635.3,286046981.2,N
1669008655.1,286046979.0,N
1669008675.9,286046979.2,N
1669008695.7,286046975.7,Y
1669008715.5,286046985.7,P
1669008735.4,286046986.8,P
1669008755.2,286046984.8,P
1669008775.0,286046983.6,Y
1669008775.9,286046983.6,P
1669008795.8,286046994.6,P
1669008815.6,286046994.3,N
1669008835.5,286046991.9,N
1669008855.3,286046992.7,N
1669008875.1,286046990.2,N
1669008895.9,286046990.9,N
1669008915.7,286046986.9,Y
1669008935.5,286046994.9,P
1669008955.4,286046993.9,N
1669008975.2,286046992.9,P
1669008995.1,286046991.6,Y
1669008996.0,286046991.6,P
1669009015.8,286046995.1,P
1669009035.6,286046996.1,N
1669009055.5,286046993.6,Y
1669009075.3,286046996.5,P
1669009095.2,286046998.0,N
1669009115.9,286046993.7,P
1669009135.7,286046991.8,Y
1669009155.6,286046995.9,P
1669009175.4,286046992.6,P
1669009195.2,286046990.2,P
1669009215.1,286046988.8,Y
1669009216.0,286046988.8,P
1669009235.8,286046993.9,N
1669009255.7,286046991.7,P
1669009275.5,286046992.6,Y
1669009295.3,286046999.4,P
1669009315.2,286046996.4,N
1669009335.0,286046992.3,N
1669009335.9,286046992.3,N
1669009355.8,286046990.3,Y
1669009375.6,286046993.7,P
1669009395.4,286046992.2,P
1669009415.3,286046991.4,P
1669009435.1,286046988.5,Y
1669009455.8,286046993.5,P
1669009475.7,286046992.3,P
1669009495.5,286046993.2,P
1669009515.4,286046991.6,Y
1669009535.2,286046996.4,P
1669009555.0,286046992.2,P
1669009555.9,286046992.2,P
1669009575.8,286046993.2,Y
1669009595.6,286046996.8,P
1669009615.4,286046996.3,N
1669009635.3,286046993.5,P
1669009655.1,286046990.5,Y
1669009675.9,286046995.9,P
1669009695.7,286046993.7,P
1669009715.5,286046994.5,P
1669009735.4,286046992.5,Y
1669009755.2,286046998.8,P
1669009775.0,286046997.4,N
1669009776.0,286046997.4,N
1669009795.8,286046995.9,N
1669009815.6,286046991.8,Y
1669009835.5,286046996.3,P
1669009855.3,286046994.5,P
1669009875.1,286046991.8,P
1669009895.9,286046990.4,Y
1669009915.7,286046995.8,P
1669009935.6,286046994.6,P
1669009955.4,286046992.9,P
1669009975.2,286046988.9,Y
1669009995.1,286046993.8,P
1669009996.0,286046993.8,P
1669010015.8,286046992.4,P
1669010035.7,286046991.0,Y
1669010055.5,286046994.1,P
1669010075.3,286046994.6,P
1669010095.2,286046991.9,P
1669010115.0,286046993.2,Y
1669010115.9,286046993.2,P
1669010135.8,286046995.7,P
1669010155.6,286046997.3,N
1669010175.4,286046996.9,N
1669010195.3,286046997.6,N
1669010215.1,286046995.5,N
1669010235.8,286046996.4,N
1669010255.7,286046993.5,Y
1669010275.5,286046998.2,P
1669010295.4,286046999.6,N
1669010315.2,286046999.4,N
1669010335.0,286046997.3,N
1669010335.9,286046997.3,N
1669010355.8,286046997.0,N
1669010375.6,286046996.5,N
1669010395.4,286046999.6,N
